Dewpoint
70 70 70 70 70 69 70 70 70 71 71 71 70 70 69 70 70 70 71 71 71 70 70 70 70 70 70 71 70 70 71 71 70 71 71 72 72 73 73 73 72 71 72 71 71 71 72 71 71 71 70 69 69 68 67 68 70 70 69 69 68 69 69 68 67 67 70 71 71 71 73 74 76 77 76 76 76 75 73 73 74 73 72 72 72
71 71 71 71 70 70 70 70 71 70 70 71 71 70 69 70 70 70 70 71 70 70 70 70 70 70 70 70 70 70 70 71 70 70 71 71 71 71 72 73 73 72 72 72 72 71 72 72 71 71 71 70 70 68 68 66 67 68 70 69 70 70 69 68 68 69 68 70 72 73 73 75 74 76 76 75 75 75 73 72 73 72 71 71 71
71 71 71 71 70 70 70 70 71 71 70 70 70 71 70 70 70 70 70 70 70 70 70 69 70 70 70 70 70 70 70 70 70 70 70 71 70 70 71 72 72 72 71 72 71 72 72 72 71 71 70 70 70 69 68 67 67 67 66 68 69 69 71 70 70 69 68 69 71 71 74 75 74 75 76 76 76 75 74 73 72 72 72 70 70
71 70 70 70 70 70 70 70 70 71 70 71 71 71 71 71 72 71 71 72 72 72 72 72 71 71 70 71 71 70 70 70 69 70 70 70 71 71 71 72 72 72 71 71 71 72 71 72 71 71 71 71 71 71 70 68 69 70 68 69 69 67 71 72 71 70 70 69 71 72 73 74 75 75 76 76 75 74 74 73 72 71 71 70 69
70 70 70 70 70 70 70 70 70 70 70 71 71 71 72 71 71 71 71 72 71 70 71 70 70 70 70 71 70 70 70 70 70 69 69 70 70 70 71 72 72 72 71 72 72 72 72 71 71 71 72 71 71 70 70 70 69 70 68 69 70 69 68 71 72 71 71 70 71 72 73 74 74 75 75 74 74 73 73 73 72 72 71 70 69
69 69 69 69 70 70 70 70 70 70 70 71 71 71 71 71 71 71 71 71 71 70 70 70 70 69 69 69 70 70 71 70 70 70 69 69 70 70 71 72 71 71 71 71 71 72 71 71 71 71 71 70 70 71 71 70 70 69 69 69 69 70 70 70 72 72 71 71 71 71 73 73 73 74 74 74 73 72 72 72 72 72 71 70 69
69 69 68 69 69 69 70 70 70 70 70 71 71 71 71 71 71 70 71 71 71 70 70 69 70 69 68 69 69 70 70 69 70 70 70 70 70 70 69 71 71 72 72 72 71 72 71 71 71 71 71 71 70 70 70 70 69 70 71 70 70 69 70 70 70 71 71 70 71 71 71 72 73 73 74 74 74 73 72 72 71 72 71 71 71
69 69 68 68 69 70 70 70 70 70 71 71 71 71 71 71 71 71 71 70 70 69 69 69 69 69 68 68 69 70 70 70 70 70 70 69 69 69 69 69 69 70 70 72 71 71 72 71 71 71 71 72 71 72 71 71 71 69 70 70 70 70 69 70 70 70 71 70 70 71 71 72 72 72 73 73 73 72 73 72 71 71 71 71 71
69 69 69 68 69 69 70 70 70 70 70 70 70 71 71 71 71 71 71 71 70 70 70 69 68 68 68 68 68 68 68 68 69 69 69 69 69 68 69 69 69 69 69 69 70 71 71 71 71 72 73 74 74 73 72 72 70 70 71 71 71 70 70 70 71 71 70 70 70 71 71 71 71 72 71 71 71 72 74 72 72 72 72 71 71
69 69 69 69 69 70 70 70 70 70 70 70 70 70 70 71 71 71 71 71 71 70 70 70 69 68 68 68 68 69 68 68 70 71 70 69 69 68 68 69 70 70 70 70 69 71 70 70 71 73 74 75 75 75 75 75 74 71 71 71 71 71 71 71 71 70 71 70 70 70 71 71 71 71 72 72 73 73 72 72 71 72 71 70 71
68 68 69 69 69 70 70 70 70 70 70 69 70 70 70 70 69 69 70 70 70 70 70 69 69 69 69 68 69 69 68 68 71 67 67 70 69 69 69 69 70 70 69 70 69 70 70 70 71 72 74 74 75 76 75 75 75 75 75 74 73 71 71 71 71 71 70 70 70 70 71 71 71 72 71 72 73 72 73 72 71 71 70 69 69
68 68 69 69 69 69 69 69 69 68 68 68 69 69 69 69 69 69 69 69 69 70 70 70 70 70 70 70 70 69 68 69 66 66 66 67 71 70 69 69 69 69 69 69 69 70 70 70 71 72 72 73 73 74 75 76 75 75 75 75 75 75 73 72 71 71 71 70 70 71 71 70 70 72 71 71 72 72 73 72 71 71 70 70 69
68 68 68 69 68 68 68 68 68 67 68 68 68 69 68 68 69 69 69 69 69 69 69 69 69 69 68 68 69 69 69 69 66 65 65 65 66 71 69 69 68 69 69 70 70 70 71 71 71 71 70 73 74 73 74 74 74 74 74 75 75 74 71 70 71 72 72 72 70 70 71 71 71 72 71 72 73 72 72 71 71 71 71 70 71
68 68 68 68 69 69 69 69 68 67 68 68 68 68 68 68 69 69 69 69 69 69 69 68 69 68 68 68 68 68 68 70 66 64 64 64 65 68 71 71 71 70 69 69 70 70 71 71 71 71 71 71 73 73 74 74 74 73 73 73 73 73 74 72 71 72 74 72 71 70 70 72 70 71 73 73 72 71 72 71 72 71 70 70 72
68 68 68 68 69 69 69 69 69 68 68 68 68 68 68 68 69 69 69 68 68 69 69 68 69 69 69 68 67 67 67 67 65 64 63 62 63 68 70 70 69 69 69 70 70 70 71 70 70 70 71 71 71 71 71 72 72 72 72 72 72 71 71 70 70 72 73 74 73 72 71 72 72 72 74 74 72 72 73 72 73 72 72 71 71
68 68 68 68 68 69 69 69 69 69 69 68 68 67 68 68 68 69 69 69 69 70 70 69 69 69 69 69 68 68 68 66 64 64 62 62 66 69 69 68 68 67 67 69 70 70 70 70 70 70 70 70 71 71 72 72 71 71 71 71 71 71 71 71 67 68 72 72 73 73 73 73 70 73 74 72 72 73 74 73 73 72 69 68 68
68 68 69 69 69 69 69 69 69 69 69 69 68 68 68 68 69 70 69 69 69 69 69 69 70 69 69 69 69 69 69 66 63 62 62 61 67 69 68 67 67 67 67 68 69 70 70 70 70 69 70 70 69 64 65 72 72 71 70 70 70 70 70 71 68 66 66 66 66 67 67 66 66 64 64 65 71 74 74 72 70 70 67 66 67
68 68 69 69 69 69 69 69 70 70 69 69 69 69 69 69 69 70 69 69 69 69 70 69 70 70 69 69 69 69 68 69 62 60 60 61 68 69 69 68 67 67 68 68 69 70 70 71 71 71 70 70 66 64 63 70 71 70 70 69 69 70 70 69 69 70 66 64 64 64 65 65 65 65 65 64 64 70 73 70 70 71 67 66 66
69 69 69 69 69 69 69 69 69 69 69 69 69 69 69 69 70 70 70 70 69 70 70 69 69 69 70 69 70 69 68 69 62 60 60 60 66 69 68 67 66 67 67 68 69 69 69 70 71 72 71 70 64 62 62 68 70 70 70 69 69 69 69 69 69 70 71 71 72 72 72 70 71 71 72 68 68 71 73 72 73 71 69 68 68
70 70 70 69 69 69 69 69 69 69 69 69 69 69 70 70 69 69 70 70 69 70 69 69 69 69 69 70 70 70 70 69 69 60 59 59 62 69 69 67 67 68 68 66 66 68 68 68 69 67 63 63 62 61 61 61 69 70 70 69 68 69 70 70 71 71 71 71 72 73 73 74 74 74 74 73 72 72 72 72 71 72 71 70 69
70 69 69 69 69 69 69 69 69 69 70 70 70 70 70 69 69 69 69 69 69 69 69 69 69 69 69 69 69 70 70 70 70 62 58 58 59 65 68 67 67 67 66 66 67 67 67 68 68 68 62 60 59 57 56 57 62 68 70 70 70 70 71 71 71 72 72 73 72 72 72 73 73 73 74 74 74 73 72 70 72 72 72 70 70
69 68 68 68 68 69 69 69 69 69 70 70 70 70 69 69 69 69 69 69 69 69 68 68 68 68 69 69 69 70 71 71 71 65 61 58 58 60 68 68 68 68 67 67 68 68 69 69 69 68 62 57 55 54 53 55 57 65 68 62 59 59 66 69 70 70 71 70 70 71 71 71 72 72 72 73 73 73 73 72 72 72 72 70 70
68 67 67 67 68 68 69 70 70 70 70 70 70 70 69 69 69 70 69 69 68 68 68 68 68 68 68 69 70 70 70 71 69 69 61 56 56 58 62 66 63 70 68 67 68 68 69 69 70 65 56 54 53 54 54 54 59 64 58 56 57 58 63 66 66 67 68 68 69 69 69 70 70 71 71 72 72 73 73 74 73 73 72 72 72
67 67 68 67 67 67 68 69 70 70 70 70 70 69 69 70 70 70 70 69 69 68 68 68 69 68 68 69 69 69 69 70 70 68 63 56 55 56 58 61 62 67 68 67 68 68 69 68 67 55 53 51 52 54 55 58 62 57 56 57 58 61 66 67 67 67 67 67 67 67 68 69 69 69 70 71 72 73 73 74 74 74 73 72 72
67 67 67 67 67 67 67 68 69 69 70 70 70 69 69 70 69 70 70 69 69 68 68 69 69 69 69 68 68 68 67 68 68 68 66 60 56 55 57 58 57 60 67 67 68 67 59 55 54 54 55 53 54 56 59 61 57 55 56 57 63 66 67 67 67 67 67 66 67 67 67 68 69 69 70 71 72 73 73 73 73 73 73 73 73
67 67 67 67 67 67 67 67 68 69 69 70 70 70 70 70 69 68 69 69 69 69 68 68 68 68 68 68 68 66 66 67 67 68 68 65 61 57 57 59 61 61 65 65 62 59 58 57 57 58 60 61 64 64 64 65 62 62 61 63 66 67 67 67 67 67 66 66 67 67 67 68 68 69 70 71 71 70 71 72 72 71 71 71 71
68 67 67 67 67 66 66 66 66 68 69 69 70 69 69 69 69 68 68 68 67 67 67 67 67 67 67 66 66 66 67 66 66 65 65 65 64 64 64 64 64 63 64 63 63 62 63 63 62 59 58 59 60 62 61 62 63 63 63 64 66 66 67 68 68 67 67 67 67 67 67 68 70 70 70 70 69 70 70 70 70 71 71 72 70
68 67 67 67 67 66 66 69 68 67 68 68 67 67 67 68 68 68 68 68 67 67 67 67 66 67 66 66 66 67 65 64 64 64 63 63 63 63 63 63 63 62 62 62 61 62 62 62 61 62 62 63 62 62 62 63 63 63 63 64 65 66 68 68 69 69 69 68 68 68 68 69 69 69 69 69 69 69 70 70 70 70 70 70 70
68 67 67 67 67 68 67 69 67 67 66 65 64 65 66 67 67 67 68 68 68 67 67 67 67 67 67 66 66 65 65 64 64 60 63 59 61 62 61 61 60 61 61 57 61 61 61 61 61 61 61 61 61 61 61 62 62 62 63 63 63 65 67 67 67 67 67 67 67 67 67 68 68 68 68 68 68 68 70 69 70 69 69 70 68
67 67 67 67 67 68 67 68 66 66 65 65 64 63 60 52 54 66 67 65 61 58 60 67 67 67 66 65 64 66 65 66 55 49 49 49 50 51 52 50 53 58 55 52 59 60 60 60 61 61 61 61 61 61 61 61 62 62 62 62 64 65 65 65 66 66 66 67 67 67 67 67 67 67 67 67 67 68 68 66 68 69 68 68 67
67 67 67 67 67 68 67 67 66 65 65 65 64 64 64 61 45 47 56 57 50 47 50 53 57 61 66 63 57 52 55 50 46 45 44 44 43 43 43 43 44 46 47 57 60 60 60 60 60 60 60 60 61 61 61 61 61 61 62 62 64 65 64 64 64 65 67 67 67 67 67 67 67 67 67 67 67 67 68 68 68 68 67 67 67
66 66 67 67 69 69 67 67 66 65 65 65 64 65 64 64 63 49 44 48 46 43 45 47 49 52 56 58 60 55 49 46 44 43 43 43 43 42 41 41 41 42 46 53 61 60 59 59 60 60 60 60 61 61 61 61 61 61 61 62 63 64 64 64 64 66 65 66 66 66 66 66 67 66 66 66 66 67 67 67 67 67 67 67 67
66 66 67 67 69 69 68 67 67 66 65 65 65 65 64 64 64 64 60 47 45 45 44 43 44 45 49 49 50 51 49 45 43 43 42 42 41 41 41 40 41 42 48 58 60 60 60 60 60 60 60 61 61 61 62 62 62 62 63 63 62 62 63 63 63 65 65 65 66 66 66 66 66 66 65 66 66 66 66 66 67 67 66 66 66
65 66 66 67 68 68 68 67 67 66 66 66 66 65 65 65 65 65 64 63 63 56 48 44 43 44 44 43 44 43 43 43 42 42 42 42 41 41 42 44 39 40 48 60 60 60 59 59 60 60 61 61 62 62 62 61 61 62 62 63 62 62 63 63 63 63 63 63 63 64 64 64 65 65 66 66 66 66 65 65 66 65 65 65 65
65 68 69 69 67 68 68 67 67 66 66 66 66 66 66 66 66 65 64 63 63 63 64 62 49 43 52 47 41 42 42 42 42 42 42 42 41 41 42 54 58 58 55 57 59 59 60 60 61 61 61 61 61 62 61 61 61 61 62 62 62 62 62 62 62 62 62 62 62 62 62 62 62 62 62 63 63 64 64 64 65 65 65 65 65
65 67 69 69 67 66 66 66 66 66 66 66 66 66 66 66 66 66 65 65 65 64 63 63 62 55 47 46 41 41 41 41 41 41 42 41 41 42 61 61 62 62 62 61 61 61 62 62 61 61 61 61 62 62 62 62 61 62 62 62 62 61 61 61 62 62 61 61 61 61 60 61 61 61 62 62 62 61 61 62 61 62 61 61 62
65 66 67 67 66 66 65 65 65 65 65 65 66 66 66 66 66 66 66 65 65 65 63 62 62 62 57 58 51 42 41 41 41 41 41 41 40 49 61 62 62 62 62 62 62 62 62 61 61 61 61 61 61 61 61 61 61 61 61 62 61 61 61 61 62 61 61 60 60 60 60 60 60 60 60 60 60 60 60 60 60 60 60 60 59
65 66 67 66 65 65 65 64 65 66 66 65 65 66 66 66 66 66 66 65 66 65 63 62 63 63 62 63 60 54 49 43 42 43 43 43 50 57 60 62 62 62 61 62 62 62 61 61 60 61 61 61 61 61 61 60 61 60 60 61 61 61 60 61 61 60 60 60 60 60 60 60 60 60 59 59 58 59 59 59 59 59 59 59 59
64 64 64 64 64 64 64 65 65 65 65 64 64 64 65 65 66 66 66 66 66 65 63 63 64 64 63 63 61 59 56 58 60 61 59 58 58 59 59 61 62 61 62 61 61 62 61 60 60 60 61 61 61 61 61 60 60 60 60 60 60 60 60 60 59 59 59 59 59 59 59 59 59 59 59 59 58 58 58 59 59 59 58 58 58
64 64 64 64 64 64 65 66 65 64 65 63 62 64 65 65 66 65 65 65 65 64 64 63 63 63 63 63 62 61 62 62 62 62 61 59 60 60 60 61 61 61 61 60 60 59 60 60 59 60 61 61 61 61 61 60 60 60 60 60 60 59 59 59 58 58 58 58 58 58 58 58 58 59 59 58 58 58 58 58 58 58 59 58 58
63 63 66 63 63 64 65 66 64 63 64 64 63 63 63 65 65 65 65 65 65 65 64 63 63 63 63 61 56 57 64 63 62 62 62 61 61 61 61 61 60 60 60 61 61 60 61 61 61 61 62 62 62 61 61 61 61 61 61 60 59 60 59 59 58 58 58 58 58 57 57 58 57 57 57 57 57 58 58 58 58 58 58 58 58
62 62 65 63 63 63 65 65 63 65 64 64 63 63 64 65 65 65 64 64 64 64 63 62 61 63 59 51 50 49 61 63 62 62 64 64 63 62 61 61 61 62 62 63 62 62 61 62 63 63 62 63 63 62 61 62 62 61 61 61 61 61 60 59 59 58 59 59 58 58 58 58 57 57 57 57 57 57 58 58 58 59 58 58 58
63 62 63 63 61 62 62 63 64 62 62 62 63 64 65 65 65 65 65 65 64 63 63 63 63 63 61 50 49 51 61 62 64 63 63 64 64 63 63 63 63 63 63 63 62 62 63 63 63 63 62 63 62 62 62 62 61 61 61 60 61 61 61 60 60 60 60 59 59 59 59 59 59 59 59 58 58 58 57 57 57 57 57 57 57
61 62 63 63 61 61 61 62 62 62 62 62 62 63 64 64 64 64 64 64 64 64 63 63 63 63 62 54 52 57 60 60 63 63 63 63 63 62 62 62 63 63 62 62 62 62 62 62 62 62 61 61 61 61 61 60 61 61 61 60 59 59 60 59 59 59 58 58 57 57 56 56 56 56 56 55 55 55 55 56 56 56 57 57 57
59 60 61 61 61 60 61 62 62 62 63 63 63 63 65 63 63 63 63 63 63 63 63 63 63 63 62 60 59 60 60 60 61 62 62 63 62 62 62 62 63 63 63 63 62 62 62 62 62 62 62 61 60 60 60 59 59 60 60 60 60 60 60 60 59 59 58 58 56 56 56 55 56 55 55 55 55 55 54 54 55 55 55 55 56
58 59 60 60 62 61 62 62 63 63 63 62 62 62 64 64 63 63 63 63 63 63 63 63 63 63 62 62 61 60 61 61 62 62 62 62 62 62 62 63 63 63 63 63 63 62 62 62 62 62 61 61 60 59 58 58 57 57 56 57 57 59 59 59 59 59 58 58 57 56 56 56 57 56 56 55 54 54 54 54 54 54 54 54 54
57 58 59 62 62 61 62 62 63 62 62 62 62 62 63 63 63 63 64 63 63 63 62 63 63 62 62 62 61 61 61 61 61 61 62 62 62 62 62 61 61 62 62 62 62 62 62 62 62 62 61 60 59 58 57 56 56 54 54 53 52 53 54 55 57 58 58 58 57 56 56 56 55 55 54 55 54 54 54 54 53 54 53 53 53
57 59 60 61 61 61 61 62 63 63 62 62 61 62 62 62 62 62 63 63 63 63 62 62 62 62 62 62 62 61 61 61 61 61 61 61 61 61 61 62 62 62 61 61 62 62 62 62 61 60 60 59 58 57 56 55 53 52 51 50 48 47 46 42 52 57 58 58 57 57 56 55 55 55 55 55 54 54 53 53 53 52 52 52 53
57 58 60 61 61 61 61 62 63 63 62 62 62 62 61 61 61 62 62 63 62 62 62 62 62 61 61 62 62 61 61 61 61 61 61 61 62 62 62 62 62 61 61 61 61 62 62 61 59 59 58 57 56 55 53 52 50 49 49 47 46 41 40 39 45 56 50 57 57 57 56 56 56 55 55 55 55 55 56 56 56 54 53 53 53
57 59 59 61 61 61 61 61 62 62 62 62 62 62 61 61 61 61 62 62 62 61 62 63 62 62 61 61 61 61 61 60 60 60 61 61 61 61 61 61 61 60 61 61 61 61 60 59 59 57 56 55 53 52 50 49 49 48 47 47 42 41 40 40 42 42 48 57 59 58 57 57 56 56 56 57 57 58 59 58 57 56 54 54 53
59 58 59 60 60 60 61 61 61 62 62 61 61 61 60 61 61 61 60 61 61 61 61 61 61 60 61 60 61 61 60 60 60 60 60 60 60 60 61 61 60 59 60 60 60 60 59 58 57 56 54 52 51 49 49 48 48 47 43 41 39 37 37 39 51 42 37 41 58 59 59 59 58 59 58 59 59 59 59 58 58 57 56 54 54